[[{"header":{"parameterUnit":"m.s-1","parameterCategory":2,"la1":30.2991,"la2":30.254,"lo1":-89.0895,"lo2":-89.0444,"dy":0.0017,"dx":0.0017,"nx":28,"ny":28,"refTime":"2025-08-08T09:00:00:Z","depth":"0","parameterNumber":2,"parameterNumberName":"U-component_of_CURRENTS"},"data":[0,0,0,0,0,0,0,0,0,0,0,0,0,0,0,0,0,0,0,0,0,0,0,0,0,0,0,0,0,0,0,0,0,0,0,0,0,0,0,0,0,0,0,0,0,0,0,0,0,0,0,0,0,0,0,0,0,0,-0.251,-0.251,0,-0.2538,-0.2539,-0.2539,-0.2515,-0.2514,-0.2513,-0.2512,-0.251,-0.2511,-0.2511,0,0,0,0,0,0,0,0,0,0,0,0,0,-0.2444,-0.2445,-0.251,-0.251,-0.2511,-0.2538,-0.2539,-0.2539,-0.2515,-0.2514,-0.2513,-0.2512,-0.251,-0.2511,-0.2512,0,0,0,0,0,0,0,0,0,0,0,0,0,-0.247,-0.2445,-0.2509,-0.2504,-0.2503,-0.2538,-0.2539,-0.2539,-0.2515,-0.2514,-0.2513,-0.2512,-0.251,-0.2511,-0.2512,-0.2543,0,0,-0.2515,-0.2515,0,0,0,0,0,0,0,0,-0.2469,-0.2473,-0.2504,-0.2504,-0.2504,-0.2523,-0.2515,-0.2539,-0.2515,-0.2509,-0.2512,-0.2511,-0.2514,-0.2515,-0.252,-0.2543,-0.2543,-0.2515,-0.2516,-0.2516,-0.2516,0,0,0,0,0,0,0,-0.2467,-0.2471,-0.2519,-0.2505,-0.2505,-0.2503,-0.2505,-0.2519,-0.2516,-0.2509,-0.2508,-0.2515,-0.2513,-0.2519,-0.252,-0.2543,-0.2515,-0.2516,-0.2517,-0.2517,-0.2568,-0.2568,0,0,0,0,0,0,-0.2469,-0.247,-0.2518,-0.252,-0.2485,-0.2505,-0.2508,-0.2517,-0.2516,-0.2516,-0.2516,-0.2514,-0.2518,-0.2519,-0.252,-0.2547,-0.2516,-0.2517,-0.2518,-0.2567,-0.2568,-0.2569,0,0,0,0,0,0,-0.2467,-0.2473,-0.2517,-0.2497,-0.2502,-0.2508,-0.2518,-0.2518,-0.2519,-0.2522,-0.252,-0.2516,-0.2517,-0.2518,-0.2529,-0.2547,-0.2518,-0.2518,-0.2566,-0.2567,-0.2568,-0.2609,0,0,0,0,0,0,-0.2465,-0.2472,-0.2475,-0.2497,-0.2504,-0.2541,-0.252,-0.252,-0.2526,-0.2523,-0.2522,-0.2521,-0.2516,-0.2528,-0.253,-0.2548,-0.2519,-0.2565,-0.2567,-0.2568,-0.2607,-0.2611,-0.2615,0,0,0,0,0,-0.2463,-0.2478,-0.2475,-0.2481,-0.2509,-0.2542,-0.2546,-0.2543,-0.2527,-0.2537,-0.253,-0.252,-0.2538,-0.2529,-0.2532,-0.2551,-0.2565,-0.2566,-0.2568,-0.2605,-0.261,-0.2615,0,0,0,0,0,0,-0.2451,-0.2478,-0.2475,-0.2496,-0.2518,-0.2539,-0.2546,-0.2546,-0.2549,-0.2541,-0.2533,-0.2533,-0.255,-0.2545,-0.2536,-0.2568,-0.2549,-0.2551,-0.2576,-0.2581,-0.2585,-0.2586,-0.252,0,0,0,0,0,-0.2451,-0.2464,-0.2493,-0.2507,-0.2519,-0.2531,-0.2541,-0.2545,-0.2554,-0.2554,-0.2553,-0.2552,-0.2562,-0.2565,-0.2573,-0.2594,-0.2579,-0.2606,-0.2611,-0.2614,-0.2616,-0.2614,-0.2618,-0.2574,-0.2574,-0.2574,0,0,-0.2447,-0.2465,-0.247,-0.2504,-0.2516,-0.2546,-0.2534,-0.2555,-0.2576,-0.2555,-0.2572,-0.2569,-0.2571,-0.2592,-0.2599,-0.2588,-0.2617,-0.2616,-0.2619,-0.262,-0.2616,-0.262,-0.2624,-0.2575,-0.2575,-0.2574,0,0,-0.2457,-0.2466,-0.2484,-0.2508,-0.2537,-0.2552,-0.256,-0.2585,-0.2589,-0.2612,-0.2599,-0.2605,-0.262,-0.2626,-0.263,-0.2664,-0.264,-0.2665,-0.2688,-0.2686,-0.269,-0.2693,-0.2669,-0.2669,-0.2666,-0.2666,-0.2666,0,-0.245,-0.2477,-0.2494,-0.2524,-0.2544,-0.2557,-0.2586,-0.2604,-0.2627,-0.2634,-0.2619,-0.2639,-0.2638,-0.2665,-0.2674,-0.2674,-0.2659,-0.267,-0.2692,-0.2694,-0.2697,-0.2672,-0.2672,-0.2668,-0.2668,-0.2668,-0.2668,0,-0.2476,-0.2501,-0.2516,-0.2555,-0.2582,-0.2609,-0.2643,-0.2662,-0.2664,-0.2676,-0.2696,-0.2695,-0.2701,-0.2707,-0.2702,-0.2724,-0.2702,-0.2698,-0.2678,-0.2704,-0.2675,-0.2675,-0.2671,-0.2671,-0.267,-0.2669,0,0,-0.2447,-0.2519,-0.2522,-0.2543,-0.2599,-0.2621,-0.2666,-0.2704,-0.2719,-0.2737,-0.2751,-0.2772,-0.2759,-0.2762,-0.2756,-0.2757,-0.2757,-0.2735,-0.2734,-0.271,-0.2735,-0.2643,-0.2633,-0.2756,-0.2757,-0.2757,-0.2705,0,-0.2456,-0.2511,-0.255,-0.2597,-0.2624,-0.2663,-0.27,-0.2737,-0.2756,-0.2774,-0.2781,-0.279,-0.2785,-0.2779,-0.2785,-0.2767,-0.2759,-0.2771,-0.2715,-0.2713,-0.2627,-0.263,-0.2524,-0.2462,-0.2704,-0.2704,-0.2704,0,-0.2461,-0.2497,-0.2546,-0.261,-0.2625,-0.2655,-0.2703,-0.2742,-0.2784,-0.2796,-0.2815,-0.2814,-0.2827,-0.2809,-0.2797,-0.2804,-0.2772,-0.2754,-0.2751,-0.2651,-0.262,-0.2478,-0.2452,-0.2431,-0.2702,-0.2702,-0.2703,0,-0.2412,-0.249,-0.2522,-0.2546,-0.2624,-0.2644,-0.2681,-0.2735,-0.2761,-0.2801,-0.2811,-0.2832,-0.2824,-0.2813,-0.2779,-0.2787,-0.2747,-0.2752,-0.2639,-0.2631,-0.2522,-0.2503,-0.2467,-0.2734,-0.2734,-0.2734,-0.2734,0,-0.2397,-0.2418,-0.2498,-0.2511,-0.254,-0.2609,-0.2638,-0.2682,-0.2736,-0.2755,-0.2806,-0.2812,-0.2823,-0.2805,-0.2781,-0.2697,-0.2746,-0.2636,-0.2612,-0.253,-0.2514,-0.2476,-0.2498,-0.2732,-0.2733,-0.2733,-0.2733,0,-0.2326,-0.2386,-0.2418,-0.2494,-0.2514,-0.2528,-0.2602,-0.2621,-0.269,-0.2715,-0.2725,-0.2784,-0.2759,-0.2751,-0.2718,-0.2674,-0.2566,-0.2576,-0.2466,-0.243,-0.2295,-0.2323,-0.2251,-0.2187,-0.2442,-0.2439,-0.2437,0,-0.2291,-0.2302,-0.2375,-0.2385,-0.2412,-0.2451,-0.2474,-0.257,-0.2598,-0.2687,-0.2687,-0.2695,-0.2665,-0.2591,-0.2526,-0.2446,-0.2455,-0.2299,-0.2297,-0.2263,-0.2279,-0.2302,-0.2257,-0.2167,-0.2163,-0.216,-0.2157,0,-0.2206,-0.2232,-0.2254,-0.228,-0.2302,-0.2336,-0.2383,-0.2403,-0.251,-0.2536,-0.2558,-0.2544,-0.2497,-0.2374,-0.2282,-0.2227,-0.2236,-0.2223,-0.2226,-0.2085,-0.2072,-0.2007,-0.2224,-0.2126,-0.2129,-0.2131,-0.2133,-0.2134,-0.2118,-0.2111,-0.214,-0.2149,-0.2177,-0.2187,-0.2171,-0.2238,-0.2256,-0.2271,-0.2364,-0.2316,-0.2261,-0.2115,-0.2054,-0.1924,-0.1999,-0.1872,-0.1915,-0.1947,-0.1866,-0.1999,-0.1854,-0.1856,-0.1857,-0.1858,-0.1859,0,-0.1997,-0.2,-0.2006,-0.2014,-0.1987,-0.205,-0.2076,-0.2038,-0.2006,-0.2064,-0.2056,-0.2029,-0.1897,-0.1865,-0.1747,-0.1655,-0.1626,-0.1623,-0.1651,-0.1623,-0.176,-0.1727,-0.1502,-0.1502,-0.1502,-0.1502,-0.1502,-0.1502,-0.1933,-0.1888,-0.1894,-0.181,-0.1811,-0.1732,-0.1713,-0.1681,-0.1692,-0.1649,-0.1671,-0.1738,-0.1724,-0.1781,-0.1638,-0.1547,-0.1521,-0.146,-0.15,-0.1629,-0.1657,-0.1683,-0.1657,-0.1421,-0.1421,-0.1298,-0.1297,-0.1296]},{"header":{"parameterUnit":"m.s-1","parameterCategory":2,"la1":30.2991,"la2":30.254,"lo1":-89.0895,"lo2":-89.0444,"dy":0.0017,"dx":0.0017,"nx":28,"ny":28,"refTime":"2025-08-08T09:00:00:Z","depth":"0","parameterNumber":3,"parameterNumberName":"V-component_of_CURRENTS"},"data":[0,0,0,0,0,0,0,0,0,0,0,0,0,0,0,0,0,0,0,0,0,0,0,0,0,0,0,0,0,0,0,0,0,0,0,0,0,0,0,0,0,0,0,0,0,0,0,0,0,0,0,0,0,0,0,0,0,0,-0.0358,-0.0358,0,-0.0287,-0.0286,-0.0285,-0.0227,-0.0226,-0.0226,-0.0226,-0.0107,-0.0105,-0.0102,0,0,0,0,0,0,0,0,0,0,0,0,0,-0.0398,-0.0398,-0.0358,-0.0358,-0.0357,-0.0287,-0.0286,-0.0284,-0.0227,-0.0226,-0.0226,-0.0225,-0.0108,-0.0105,-0.0102,0,0,0,0,0,0,0,0,0,0,0,0,0,-0.0358,-0.0398,-0.0359,-0.0321,-0.0317,-0.0287,-0.0286,-0.0284,-0.0227,-0.0226,-0.0226,-0.0225,-0.0109,-0.0105,-0.0101,-0.0089,0,0,-0.0089,-0.0087,0,0,0,0,0,0,0,0,-0.036,-0.0356,-0.0327,-0.0324,-0.0319,-0.0267,-0.0256,-0.0217,-0.0227,-0.0259,-0.0226,-0.0225,-0.0158,-0.015,-0.0136,-0.0083,-0.0078,-0.0088,-0.0086,-0.0084,-0.0083,0,0,0,0,0,0,0,-0.0363,-0.0358,-0.0328,-0.0327,-0.0322,-0.0292,-0.0285,-0.0248,-0.0211,-0.0256,-0.0253,-0.0248,-0.0155,-0.014,-0.0132,-0.0076,-0.0088,-0.0085,-0.0082,-0.0081,-0.0002,-0.0003,0,0,0,0,0,0,-0.0379,-0.0361,-0.033,-0.0326,-0.034,-0.0292,-0.0285,-0.0283,-0.0212,-0.0202,-0.0248,-0.0245,-0.0147,-0.0137,-0.0128,-0.0114,-0.0084,-0.008,-0.0078,-0.0002,-0.0002,-0.0003,0,0,0,0,0,0,-0.038,-0.0377,-0.0333,-0.0343,-0.0336,-0.0292,-0.029,-0.0282,-0.0266,-0.0207,-0.0195,-0.0242,-0.0146,-0.0134,-0.0101,-0.0108,-0.0078,-0.0075,-0.0001,-0.0002,-0.0002,-0.0082,0,0,0,0,0,0,-0.0381,-0.0378,-0.0383,-0.0345,-0.0336,-0.0325,-0.0291,-0.0281,-0.0265,-0.026,-0.0197,-0.0186,-0.0145,-0.0107,-0.0097,-0.0102,-0.0071,-0.0001,-0.0002,-0.0002,-0.0079,-0.0085,-0.0091,0,0,0,0,0,-0.0383,-0.0398,-0.0383,-0.038,-0.0344,-0.0326,-0.0319,-0.0284,-0.0266,-0.0266,-0.0223,-0.0188,-0.0104,-0.0105,-0.0092,-0.0096,-0.0,-0.0001,-0.0002,-0.0076,-0.0084,-0.009,0,0,0,0,0,0,-0.0419,-0.0392,-0.0376,-0.0382,-0.0359,-0.0317,-0.0315,-0.029,-0.0257,-0.025,-0.0192,-0.0177,-0.0152,-0.0114,-0.0116,-0.0076,-0.0047,-0.0045,-0.0107,-0.0114,-0.012,-0.013,-0.0068,0,0,0,0,0,-0.043,-0.0432,-0.04,-0.0405,-0.0397,-0.0356,-0.0345,-0.0322,-0.0287,-0.0272,-0.0228,-0.0182,-0.0146,-0.0123,-0.0086,-0.0064,-0.0016,-0.0058,-0.0064,-0.0069,-0.007,-0.0012,-0.0013,-0.0006,-0.0006,-0.0006,0,0,-0.0445,-0.0431,-0.0431,-0.0412,-0.039,-0.0391,-0.0347,-0.0337,-0.0333,-0.0264,-0.0246,-0.0202,-0.0146,-0.0123,-0.0107,-0.0091,-0.0046,-0.0071,-0.0076,-0.0072,-0.0013,-0.0014,-0.0015,-0.0006,-0.0006,-0.0006,0,0,-0.0482,-0.0463,-0.048,-0.0467,-0.0445,-0.0419,-0.042,-0.0383,-0.0361,-0.034,-0.0291,-0.0253,-0.0198,-0.0158,-0.0131,-0.0146,-0.0082,-0.0136,-0.0169,-0.0115,-0.0115,-0.0114,-0.0053,-0.0046,-0.0135,-0.0136,-0.0136,0,-0.0503,-0.0517,-0.0482,-0.0496,-0.0492,-0.0438,-0.0455,-0.0427,-0.0384,-0.0365,-0.0346,-0.0259,-0.0215,-0.0176,-0.0183,-0.0159,-0.0115,-0.0149,-0.0122,-0.0121,-0.0119,-0.0056,-0.0048,-0.014,-0.0139,-0.0139,-0.0138,0,-0.0552,-0.0563,-0.0572,-0.057,-0.056,-0.0565,-0.0526,-0.0509,-0.0474,-0.0438,-0.0393,-0.0329,-0.0276,-0.0258,-0.0224,-0.0191,-0.0159,-0.014,-0.0107,-0.0125,-0.0057,-0.0047,-0.0145,-0.0144,-0.0143,-0.0142,0,0,-0.0599,-0.0608,-0.061,-0.0623,-0.06,-0.0598,-0.0589,-0.0562,-0.0548,-0.0496,-0.0469,-0.0407,-0.036,-0.0327,-0.0274,-0.0225,-0.0176,-0.0184,-0.0179,-0.0127,-0.0046,0.0003,0.0019,-0.0152,-0.0151,-0.015,-0.0004,0,-0.0649,-0.0698,-0.068,-0.0715,-0.0735,-0.0687,-0.0682,-0.0646,-0.0597,-0.0556,-0.0476,-0.0433,-0.039,-0.0361,-0.0308,-0.0206,-0.0153,-0.0216,-0.0032,-0.0026,0.0015,0.0031,0.0062,0.0197,0.0006,0.0008,0.0009,0,-0.0703,-0.0728,-0.0779,-0.0789,-0.079,-0.0797,-0.0768,-0.0756,-0.068,-0.064,-0.0574,-0.0504,-0.0423,-0.0386,-0.0222,-0.0264,-0.0167,-0.0085,-0.0078,0.0003,0.0041,0.0185,0.0223,0.0361,0.0026,0.0024,0.0023,0,-0.0758,-0.0793,-0.0836,-0.0842,-0.0844,-0.0848,-0.0838,-0.0781,-0.0764,-0.0686,-0.0652,-0.0546,-0.048,-0.0356,-0.0189,-0.0205,0.0004,0.0006,0.0144,0.0149,0.0231,0.0241,0.0422,0.0119,0.0119,0.0118,0.0118,0,-0.0821,-0.0852,-0.0867,-0.0892,-0.093,-0.0905,-0.0916,-0.0884,-0.0828,-0.0799,-0.0699,-0.0637,-0.0469,-0.0327,-0.0192,0.0019,0.0007,0.015,0.0193,0.0205,0.021,0.0378,0.0424,0.0124,0.0123,0.0122,0.0121,0,-0.0876,-0.0887,-0.0938,-0.0956,-0.0962,-0.0986,-0.0979,-0.0976,-0.0914,-0.0869,-0.0846,-0.0692,-0.0501,-0.0315,-0.0088,0.0028,0.031,0.0289,0.0296,0.0337,0.057,0.0609,0.0837,0.0919,0.0457,0.046,0.0461,0,-0.0909,-0.0944,-0.099,-0.1021,-0.1033,-0.1058,-0.1071,-0.1028,-0.1014,-0.0893,-0.0869,-0.0679,-0.0524,-0.0166,0.0072,0.0333,0.043,0.0506,0.0475,0.0603,0.0678,0.0702,0.0755,0.0559,0.0561,0.0563,0.0565,0,-0.0967,-0.0982,-0.1021,-0.109,-0.1122,-0.1152,-0.1158,-0.1162,-0.1091,-0.102,-0.0882,-0.0744,-0.0392,-0.0074,0.0262,0.0417,0.0608,0.0554,0.0693,0.0782,0.0816,0.0908,0.0444,0.0583,0.0581,0.058,0.0579,0.0578,-0.0996,-0.1041,-0.1092,-0.1152,-0.1192,-0.1226,-0.1237,-0.1212,-0.1166,-0.1033,-0.09,-0.0652,-0.021,0.0276,0.0454,0.0823,0.0779,0.0923,0.0964,0.0981,0.1048,0.0623,0.0799,0.0798,0.0798,0.0798,0.0797,0,-0.1028,-0.1078,-0.1147,-0.1213,-0.1261,-0.1265,-0.1275,-0.1245,-0.1172,-0.1018,-0.0845,-0.0347,0.0099,0.05,0.1013,0.1213,0.1248,0.1314,0.1358,0.1395,0.1039,0.103,0.1256,0.1256,0.1256,0.1255,0.1255,0.1255,-0.1047,-0.1118,-0.1157,-0.1245,-0.1288,-0.1311,-0.1308,-0.1231,-0.1114,-0.0823,-0.0541,-0.0321,0.0256,0.107,0.1542,0.1589,0.1742,0.1739,0.1821,0.1569,0.1535,0.1503,0.1507,0.183,0.1831,0.2165,0.2168,0.217]}],[{"header":{"parameterUnit":"m.s-1","parameterCategory":2,"la1":30.2991,"la2":30.254,"lo1":-89.0895,"lo2":-89.0444,"dy":0.0017,"dx":0.0017,"nx":28,"ny":28,"refTime":"2025-08-08T09:00:00:Z","depth":"2","parameterNumber":2,"parameterNumberName":"U-component_of_CURRENTS"},"data":[0,0,0,0,0,0,0,0,0,0,0,0,0,0,0,0,0,0,0,0,0,0,0,0,0,0,0,0,0,0,0,0,0,0,0,0,0,0,0,0,0,0,0,0,0,0,0,0,0,0,0,0,0,0,0,0,0,0,-0.2224,-0.2225,0,-0.2255,-0.2255,-0.2255,-0.2241,-0.224,-0.2239,-0.2239,-0.2245,-0.2246,-0.2247,0,0,0,0,0,0,0,0,0,0,0,0,0,-0.2157,-0.2158,-0.2224,-0.2225,-0.2225,-0.2255,-0.2255,-0.2256,-0.2241,-0.224,-0.2239,-0.2239,-0.2245,-0.2246,-0.2247,0,0,0,0,0,0,0,0,0,0,0,0,0,-0.2185,-0.2159,-0.2224,-0.2223,-0.2223,-0.2255,-0.2255,-0.2256,-0.2241,-0.224,-0.2239,-0.2238,-0.2245,-0.2246,-0.2247,-0.2272,0,0,-0.225,-0.2251,0,0,0,0,0,0,0,0,-0.2183,-0.2187,-0.2223,-0.2223,-0.2224,-0.2245,-0.2234,-0.2261,-0.2241,-0.2232,-0.2239,-0.2238,-0.2245,-0.2246,-0.2251,-0.2272,-0.2273,-0.225,-0.2251,-0.2251,-0.2252,0,0,0,0,0,0,0,-0.2182,-0.2186,-0.2234,-0.2223,-0.2224,-0.2223,-0.2225,-0.2239,-0.2241,-0.2233,-0.2232,-0.2239,-0.2244,-0.225,-0.2251,-0.2273,-0.225,-0.2251,-0.2252,-0.2252,-0.2304,-0.2305,0,0,0,0,0,0,-0.2183,-0.2184,-0.2233,-0.2236,-0.2203,-0.2225,-0.2228,-0.2237,-0.2242,-0.2242,-0.224,-0.2238,-0.2249,-0.225,-0.2251,-0.2282,-0.2251,-0.2252,-0.2253,-0.2303,-0.2304,-0.2305,0,0,0,0,0,0,-0.2181,-0.2187,-0.2232,-0.2212,-0.2218,-0.2227,-0.2238,-0.2238,-0.2243,-0.2248,-0.2247,-0.2244,-0.2248,-0.225,-0.2264,-0.2282,-0.2253,-0.2254,-0.2303,-0.2304,-0.2305,-0.2343,0,0,0,0,0,0,-0.2179,-0.2186,-0.2191,-0.2212,-0.2219,-0.2257,-0.2239,-0.224,-0.225,-0.2248,-0.2251,-0.2251,-0.2247,-0.2262,-0.2265,-0.2283,-0.2255,-0.2302,-0.2303,-0.2304,-0.234,-0.2345,-0.2349,0,0,0,0,0,-0.2177,-0.2192,-0.2191,-0.2197,-0.2226,-0.2258,-0.2261,-0.2263,-0.2251,-0.2261,-0.2259,-0.2251,-0.2272,-0.2264,-0.2267,-0.2285,-0.2301,-0.2303,-0.2304,-0.2339,-0.2344,-0.2348,0,0,0,0,0,0,-0.2166,-0.2193,-0.2192,-0.2214,-0.2236,-0.2256,-0.2265,-0.2267,-0.2274,-0.2268,-0.2263,-0.2264,-0.2283,-0.2279,-0.227,-0.2303,-0.2285,-0.2287,-0.231,-0.2315,-0.2319,-0.232,-0.2256,0,0,0,0,0,-0.2167,-0.2181,-0.2209,-0.2224,-0.2237,-0.225,-0.2261,-0.2267,-0.2278,-0.228,-0.2282,-0.2284,-0.2294,-0.2299,-0.2307,-0.2329,-0.2314,-0.2341,-0.2345,-0.2349,-0.2351,-0.2346,-0.235,-0.231,-0.231,-0.231,0,0,-0.2165,-0.2182,-0.2189,-0.2222,-0.2235,-0.2264,-0.2254,-0.2277,-0.2298,-0.2281,-0.2301,-0.2301,-0.2303,-0.2325,-0.2333,-0.2323,-0.2351,-0.2351,-0.2354,-0.2355,-0.2348,-0.2352,-0.2355,-0.2311,-0.2311,-0.2311,0,0,-0.2174,-0.2186,-0.2204,-0.2228,-0.2257,-0.2272,-0.2281,-0.2306,-0.2313,-0.2338,-0.2328,-0.2336,-0.2354,-0.2358,-0.2362,-0.2394,-0.2373,-0.2398,-0.242,-0.2416,-0.2419,-0.2421,-0.24,-0.24,-0.2399,-0.2399,-0.2399,0,-0.217,-0.2197,-0.2214,-0.2243,-0.2262,-0.2277,-0.2305,-0.2324,-0.235,-0.2358,-0.2348,-0.2371,-0.2371,-0.2395,-0.2404,-0.2404,-0.2391,-0.2402,-0.2421,-0.2423,-0.2425,-0.2402,-0.2402,-0.2401,-0.2401,-0.24,-0.24,0,-0.2195,-0.2219,-0.2234,-0.2272,-0.2298,-0.2325,-0.2358,-0.238,-0.2386,-0.2399,-0.2423,-0.2423,-0.2431,-0.2437,-0.2431,-0.2451,-0.2433,-0.2427,-0.2407,-0.2431,-0.2406,-0.2405,-0.2404,-0.2403,-0.2402,-0.2402,0,0,-0.217,-0.2237,-0.2241,-0.2261,-0.2315,-0.2336,-0.238,-0.2418,-0.2435,-0.2457,-0.2474,-0.2494,-0.2485,-0.2488,-0.2483,-0.2481,-0.2481,-0.2462,-0.2461,-0.2439,-0.2458,-0.2372,-0.2363,-0.2478,-0.2478,-0.2478,-0.2432,0,-0.2179,-0.2231,-0.2266,-0.2311,-0.2338,-0.2376,-0.2412,-0.2448,-0.247,-0.2492,-0.25,-0.2513,-0.2508,-0.2506,-0.2509,-0.249,-0.2481,-0.2493,-0.2439,-0.2437,-0.2358,-0.236,-0.2194,-0.2132,-0.2431,-0.2431,-0.243,0,-0.2184,-0.2218,-0.2265,-0.2325,-0.234,-0.237,-0.2418,-0.2456,-0.25,-0.2515,-0.2536,-0.2539,-0.255,-0.2534,-0.2518,-0.2526,-0.2495,-0.2476,-0.2474,-0.2381,-0.2351,-0.2158,-0.2119,-0.2429,-0.2429,-0.2429,-0.2429,0,-0.214,-0.2213,-0.2245,-0.2267,-0.2341,-0.2363,-0.2399,-0.2453,-0.2479,-0.2524,-0.2536,-0.2557,-0.2552,-0.2538,-0.2504,-0.2511,-0.2471,-0.2472,-0.2366,-0.236,-0.2199,-0.2178,-0.2452,-0.2452,-0.2452,-0.2453,-0.2453,0,-0.2127,-0.2149,-0.2224,-0.2238,-0.2268,-0.2334,-0.2366,-0.2409,-0.2464,-0.2483,-0.2535,-0.254,-0.2553,-0.2534,-0.2507,-0.2426,-0.247,-0.2365,-0.2342,-0.2207,-0.2187,-0.2433,-0.2431,-0.2451,-0.2451,-0.2452,-0.2452,0,-0.2064,-0.212,-0.2153,-0.2226,-0.2246,-0.2263,-0.2336,-0.2355,-0.2425,-0.2451,-0.2464,-0.2519,-0.2494,-0.2488,-0.2452,-0.2407,-0.2353,-0.2311,-0.2144,-0.2102,-0.2245,-0.2246,-0.219,-0.2187,-0.2184,-0.2182,-0.218,0,-0.2034,-0.2045,-0.2117,-0.2127,-0.2155,-0.2197,-0.2219,-0.2311,-0.2338,-0.2423,-0.2422,-0.2434,-0.2399,-0.2328,-0.2261,-0.2182,-0.2263,-0.1985,-0.1969,-0.2234,-0.2218,-0.2224,-0.2229,-0.1769,-0.1764,-0.176,-0.1756,0,-0.1958,-0.1985,-0.2007,-0.2033,-0.2057,-0.2088,-0.2134,-0.215,-0.225,-0.2271,-0.2285,-0.2267,-0.2223,-0.2068,-0.1986,-0.1924,-0.1988,-0.1894,-0.2206,-0.1866,-0.1834,-0.182,-0.1839,-0.1718,-0.1722,-0.1725,-0.1727,-0.1728,-0.1881,-0.1875,-0.1904,-0.1914,-0.1942,-0.1947,-0.1926,-0.1983,-0.1992,-0.1993,-0.208,-0.2001,-0.1985,-0.1767,-0.167,-0.1602,-0.174,-0.1661,-0.1675,-0.1694,-0.1658,-0.1624,-0.146,-0.1462,-0.1464,-0.1466,-0.1468,0,-0.1772,-0.1775,-0.178,-0.1786,-0.176,-0.1821,-0.1836,-0.1788,-0.174,-0.1773,-0.1753,-0.1571,-0.1462,-0.1459,-0.1295,-0.1254,-0.1253,-0.1199,-0.1205,-0.1243,-0.1277,-0.1221,-0.0907,-0.0905,-0.0903,-0.0902,0,0,-0.1714,-0.1673,-0.1674,-0.1592,-0.1593,-0.1513,-0.1487,-0.1437,-0.1425,-0.1334,-0.1299,-0.1396,-0.142,-0.1174,-0.1105,-0.0983,-0.1104,-0.0929,-0.1379,-0.1424,-0.1456,-0.1539,-0.1495,0,0,0,0,0]},{"header":{"parameterUnit":"m.s-1","parameterCategory":2,"la1":30.2991,"la2":30.254,"lo1":-89.0895,"lo2":-89.0444,"dy":0.0017,"dx":0.0017,"nx":28,"ny":28,"refTime":"2025-08-08T09:00:00:Z","depth":"2","parameterNumber":3,"parameterNumberName":"V-component_of_CURRENTS"},"data":[0,0,0,0,0,0,0,0,0,0,0,0,0,0,0,0,0,0,0,0,0,0,0,0,0,0,0,0,0,0,0,0,0,0,0,0,0,0,0,0,0,0,0,0,0,0,0,0,0,0,0,0,0,0,0,0,0,0,-0.026,-0.026,0,-0.0194,-0.0193,-0.0192,-0.0141,-0.014,-0.014,-0.014,-0.0032,-0.0029,-0.0027,0,0,0,0,0,0,0,0,0,0,0,0,0,-0.0298,-0.0297,-0.026,-0.0259,-0.0259,-0.0194,-0.0193,-0.0192,-0.0141,-0.014,-0.014,-0.014,-0.0033,-0.003,-0.0027,0,0,0,0,0,0,0,0,0,0,0,0,0,-0.026,-0.0297,-0.026,-0.0227,-0.0223,-0.0194,-0.0193,-0.0192,-0.0141,-0.014,-0.014,-0.0139,-0.0034,-0.003,-0.0026,-0.0013,0,0,-0.0014,-0.0013,0,0,0,0,0,0,0,0,-0.0262,-0.0258,-0.0232,-0.0229,-0.0225,-0.0177,-0.0167,-0.013,-0.0141,-0.017,-0.014,-0.0139,-0.0078,-0.007,-0.0057,-0.0008,-0.0003,-0.0014,-0.0012,-0.001,-0.0009,0,0,0,0,0,0,0,-0.0265,-0.0261,-0.0232,-0.0232,-0.0227,-0.02,-0.0194,-0.0159,-0.0126,-0.0168,-0.0164,-0.016,-0.0075,-0.0061,-0.0054,-0.0001,-0.0014,-0.0011,-0.0008,-0.0007,0.007,0.007,0,0,0,0,0,0,-0.028,-0.0264,-0.0234,-0.023,-0.0245,-0.02,-0.0193,-0.0191,-0.0127,-0.0117,-0.016,-0.0158,-0.0068,-0.0059,-0.005,-0.0031,-0.001,-0.0007,-0.0004,0.007,0.007,0.007,0,0,0,0,0,0,-0.0281,-0.0278,-0.0237,-0.0247,-0.024,-0.02,-0.0198,-0.019,-0.0176,-0.0122,-0.0111,-0.0155,-0.0067,-0.0056,-0.0024,-0.0026,-0.0005,-0.0001,0.007,0.007,0.007,0.0009,0,0,0,0,0,0,-0.0282,-0.0279,-0.0283,-0.0248,-0.024,-0.0228,-0.0198,-0.0189,-0.0175,-0.0171,-0.0114,-0.0103,-0.0066,-0.003,-0.002,-0.002,0.0002,0.0071,0.007,0.007,0.0011,0.0006,0.0002,0,0,0,0,0,-0.0284,-0.0295,-0.0284,-0.028,-0.0247,-0.0229,-0.0222,-0.0191,-0.0176,-0.0175,-0.0136,-0.0105,-0.0026,-0.0028,-0.0016,-0.0015,0.0071,0.007,0.007,0.0013,0.0007,0.0002,0,0,0,0,0,0,-0.0314,-0.029,-0.0277,-0.0281,-0.026,-0.0221,-0.0219,-0.0197,-0.0166,-0.0161,-0.0107,-0.0094,-0.0069,-0.0035,-0.0038,0.0006,0.0027,0.0029,-0.002,-0.0025,-0.0029,-0.0039,0.0005,0,0,0,0,0,-0.0325,-0.0326,-0.0297,-0.03,-0.0293,-0.0257,-0.0246,-0.0225,-0.0193,-0.0179,-0.0139,-0.0097,-0.0062,-0.0039,-0.0006,0.0019,0.006,0.0028,0.0023,0.0019,0.0019,0.0074,0.0074,0.0068,0.0068,0.0068,0,0,-0.0337,-0.0325,-0.0325,-0.0307,-0.0287,-0.0284,-0.0248,-0.0238,-0.0231,-0.0172,-0.0152,-0.0113,-0.0061,-0.0035,-0.0019,-0.0005,0.0042,0.0018,0.0014,0.0017,0.0073,0.0074,0.0075,0.0067,0.0067,0.0067,0,0,-0.0368,-0.0352,-0.0365,-0.0353,-0.0333,-0.0309,-0.031,-0.0275,-0.0255,-0.0233,-0.0189,-0.0152,-0.0101,-0.006,-0.0033,-0.0041,0.0013,-0.0033,-0.0056,-0.0003,-0.0002,-0.0001,0.0049,0.0055,-0.003,-0.003,-0.0031,0,-0.0385,-0.0396,-0.0366,-0.0376,-0.0371,-0.0325,-0.0337,-0.031,-0.0269,-0.0251,-0.0236,-0.0153,-0.0111,-0.0067,-0.0071,-0.005,-0.0014,-0.0042,-0.0009,-0.0007,-0.0004,0.0047,0.0054,-0.0033,-0.0033,-0.0033,-0.0033,0,-0.0424,-0.0432,-0.0439,-0.0434,-0.0424,-0.0427,-0.0389,-0.0373,-0.0342,-0.0308,-0.0264,-0.0203,-0.0152,-0.0133,-0.0104,-0.0065,-0.0044,-0.0026,0.0003,-0.0007,0.0047,0.0056,-0.0038,-0.0037,-0.0036,-0.0035,0,0,-0.0464,-0.0468,-0.047,-0.048,-0.0456,-0.0453,-0.044,-0.0411,-0.0398,-0.0347,-0.032,-0.0256,-0.0216,-0.0184,-0.0135,-0.0086,-0.0038,-0.0054,-0.005,-0.0008,0.0078,0.0106,0.012,-0.0015,-0.0014,-0.0013,0.0107,0,-0.0504,-0.0542,-0.0525,-0.0551,-0.0567,-0.0523,-0.0514,-0.0479,-0.0435,-0.0397,-0.0318,-0.0277,-0.0236,-0.0212,-0.0157,-0.0068,-0.0016,-0.0072,0.0084,0.0089,0.0113,0.0131,0.0106,0.0212,0.0116,0.0118,0.0119,0,-0.0548,-0.0568,-0.0609,-0.0614,-0.0615,-0.0619,-0.0592,-0.0576,-0.0505,-0.0469,-0.0405,-0.0341,-0.026,-0.0227,-0.0075,-0.0114,-0.0028,0.0045,0.0052,0.0107,0.0135,0.0208,0.0233,0.0135,0.0134,0.0133,0.0132,0,-0.0599,-0.0624,-0.066,-0.0664,-0.0661,-0.0664,-0.0654,-0.06,-0.0585,-0.0511,-0.0484,-0.0378,-0.032,-0.0202,-0.0054,-0.0064,0.0118,0.0126,0.0237,0.024,0.0266,0.0269,0.0234,0.0234,0.0233,0.0233,0.0233,0,-0.0652,-0.0678,-0.0689,-0.0712,-0.0746,-0.0719,-0.0731,-0.07,-0.065,-0.0628,-0.0527,-0.0476,-0.0312,-0.0186,-0.006,0.0122,0.0118,0.0242,0.0277,0.0243,0.0243,0.0212,0.0207,0.0238,0.0237,0.0236,0.0235,0,-0.0703,-0.071,-0.0755,-0.0769,-0.0775,-0.0799,-0.0795,-0.0795,-0.0739,-0.0704,-0.0683,-0.0541,-0.0372,-0.0197,0.0011,0.0118,0.0285,0.035,0.0298,0.0325,0.0372,0.0363,0.0484,0.0486,0.0488,0.049,0.0491,0,-0.0734,-0.0764,-0.0806,-0.0837,-0.0848,-0.0874,-0.0888,-0.0848,-0.0839,-0.0737,-0.0719,-0.0553,-0.0418,-0.01,0.0117,0.0355,0.035,0.0462,0.044,0.0377,0.04,0.0388,0.0377,0.0452,0.0453,0.0453,0.0454,0,-0.0789,-0.0803,-0.0839,-0.0907,-0.0939,-0.0969,-0.098,-0.0987,-0.0925,-0.0867,-0.0753,-0.0634,-0.0328,-0.0064,0.0235,0.0369,0.0419,0.0483,0.0451,0.0384,0.0355,0.0374,0.0363,0.046,0.0459,0.0459,0.0459,0.0458,-0.0821,-0.0863,-0.0911,-0.0969,-0.1011,-0.1047,-0.106,-0.1042,-0.1007,-0.0896,-0.0785,-0.0574,-0.033,0.0106,0.0316,0.051,0.0505,0.0553,0.0547,0.0542,0.0509,0.0484,0.0607,0.0607,0.0607,0.0608,0.0608,0,-0.0857,-0.0903,-0.0969,-0.1033,-0.1082,-0.1088,-0.1102,-0.1076,-0.1018,-0.0891,-0.0746,-0.0454,-0.0157,0.0099,0.0411,0.0591,0.057,0.0617,0.0551,0.0545,0.0539,0.0503,0.0601,0.0601,0.0602,0.0602,0,0,-0.0877,-0.0945,-0.098,-0.1068,-0.1113,-0.1142,-0.1142,-0.1073,-0.0972,-0.082,-0.0659,-0.0454,-0.0144,0.0071,0.0298,0.046,0.0454,0.0475,0.0464,0.0353,0.0345,0.0488,0.0424,0,0,0,0,0]}],[{"header":{"parameterUnit":"m.s-1","parameterCategory":2,"la1":30.2991,"la2":30.254,"lo1":-89.0895,"lo2":-89.0444,"dy":0.0017,"dx":0.0017,"nx":28,"ny":28,"refTime":"2025-08-08T09:00:00:Z","depth":"4","parameterNumber":2,"parameterNumberName":"U-component_of_CURRENTS"},"data":[0,0,0,0,0,0,0,0,0,0,0,0,0,0,0,0,0,0,0,0,0,0,0,0,0,0,0,0,0,0,0,0,0,0,0,0,0,0,0,0,0,0,0,0,0,0,0,0,0,0,0,0,0,0,0,0,0,0,-0.1591,-0.1592,0,-0.1655,-0.1655,-0.1656,-0.1694,-0.1694,-0.1695,-0.1695,-0.1763,-0.1765,-0.1766,0,0,0,0,0,0,0,0,0,0,0,0,0,-0.1497,-0.1499,-0.1591,-0.1592,-0.1593,-0.1655,-0.1655,-0.1656,-0.1694,-0.1694,-0.1695,-0.1695,-0.1763,-0.1765,-0.1766,0,0,0,0,0,0,0,0,0,0,0,0,0,-0.1546,-0.1499,-0.159,-0.162,-0.1624,-0.1654,-0.1655,-0.1656,-0.1694,-0.1694,-0.1695,-0.1695,-0.1762,-0.1764,-0.1767,-0.1771,0,0,-0.1774,-0.1774,0,0,0,0,0,0,0,0,-0.1543,-0.1549,-0.1615,-0.1618,-0.1622,-0.1668,-0.1647,-0.1695,-0.1694,-0.1666,-0.1695,-0.1696,-0.1733,-0.1737,-0.1746,-0.1774,-0.1777,-0.1774,-0.1775,-0.1776,-0.1777,0,0,0,0,0,0,0,-0.1539,-0.1546,-0.1614,-0.1616,-0.162,-0.1629,-0.1636,-0.1657,-0.1694,-0.1668,-0.1671,-0.1681,-0.1735,-0.1744,-0.1748,-0.1778,-0.1774,-0.1776,-0.1777,-0.1778,-0.1871,-0.1872,0,0,0,0,0,0,-0.1535,-0.1543,-0.1612,-0.1616,-0.1585,-0.163,-0.1639,-0.1652,-0.1694,-0.1702,-0.1681,-0.1683,-0.1739,-0.1745,-0.175,-0.182,-0.1776,-0.1778,-0.1779,-0.187,-0.1871,-0.1872,0,0,0,0,0,0,-0.1533,-0.154,-0.161,-0.1582,-0.1592,-0.1632,-0.1646,-0.1653,-0.1688,-0.1704,-0.1711,-0.1713,-0.174,-0.1747,-0.1792,-0.182,-0.1779,-0.1781,-0.1868,-0.187,-0.1872,-0.1918,0,0,0,0,0,0,-0.153,-0.1539,-0.1559,-0.1582,-0.1593,-0.1648,-0.1646,-0.1654,-0.1693,-0.1697,-0.1733,-0.1739,-0.1741,-0.1788,-0.1794,-0.1822,-0.1783,-0.1867,-0.1869,-0.1871,-0.1915,-0.1921,-0.1926,0,0,0,0,0,-0.1526,-0.1549,-0.156,-0.1569,-0.1616,-0.1649,-0.1656,-0.1684,-0.1694,-0.1716,-0.174,-0.1739,-0.1805,-0.1791,-0.1797,-0.1827,-0.1866,-0.1869,-0.1871,-0.1913,-0.192,-0.1926,0,0,0,0,0,0,-0.1522,-0.1556,-0.1568,-0.1602,-0.1632,-0.1656,-0.1684,-0.1699,-0.1736,-0.1747,-0.1756,-0.1764,-0.1812,-0.1813,-0.1797,-0.1859,-0.1834,-0.1838,-0.1864,-0.1871,-0.1876,-0.1871,-0.1785,0,0,0,0,0,-0.1529,-0.1556,-0.1587,-0.1617,-0.1634,-0.1663,-0.1685,-0.1705,-0.1734,-0.1752,-0.1776,-0.18,-0.1822,-0.1843,-0.1862,-0.1899,-0.1881,-0.1921,-0.1927,-0.1931,-0.1931,-0.1927,-0.1931,-0.1881,-0.1881,-0.1881,0,0,-0.1537,-0.1559,-0.1576,-0.1618,-0.1644,-0.1676,-0.1678,-0.1721,-0.1753,-0.1753,-0.1811,-0.1825,-0.1837,-0.1878,-0.1899,-0.1886,-0.1937,-0.1935,-0.1939,-0.1936,-0.193,-0.1935,-0.1939,-0.1882,-0.1882,-0.1882,0,0,-0.1555,-0.1586,-0.1612,-0.1641,-0.1686,-0.1704,-0.1723,-0.1764,-0.1792,-0.1842,-0.1847,-0.1876,-0.1921,-0.1929,-0.1937,-0.1985,-0.1966,-0.1998,-0.2026,-0.2022,-0.2026,-0.2029,-0.2009,-0.201,-0.2001,-0.2002,-0.2002,0,-0.1565,-0.1599,-0.1626,-0.1658,-0.1686,-0.172,-0.1754,-0.1787,-0.184,-0.1861,-0.187,-0.1928,-0.1941,-0.1975,-0.1992,-0.1998,-0.1987,-0.2,-0.2028,-0.2031,-0.2033,-0.2012,-0.2013,-0.2004,-0.2004,-0.2004,-0.2003,0,-0.1592,-0.1632,-0.1653,-0.1702,-0.1737,-0.1775,-0.1817,-0.186,-0.1895,-0.192,-0.1974,-0.199,-0.2018,-0.2032,-0.2029,-0.2058,-0.2042,-0.2034,-0.2009,-0.2041,-0.2017,-0.2017,-0.2008,-0.2007,-0.2006,-0.2005,0,0,-0.1575,-0.1656,-0.1666,-0.1696,-0.1764,-0.1791,-0.1852,-0.1904,-0.1939,-0.1992,-0.2029,-0.207,-0.2077,-0.2085,-0.2089,-0.2091,-0.2099,-0.2076,-0.2075,-0.2052,-0.2082,-0.1944,-0.193,-0.2099,-0.2099,-0.21,-0.2057,0,-0.1589,-0.1651,-0.1692,-0.1756,-0.1789,-0.1842,-0.1891,-0.1945,-0.1989,-0.2035,-0.2059,-0.2097,-0.2098,-0.2114,-0.2119,-0.2106,-0.2101,-0.211,-0.2058,-0.2056,-0.1926,-0.1926,-0.2101,-0.2057,-0.2057,-0.2056,-0.2056,0,-0.1594,-0.1636,-0.1701,-0.1778,-0.1799,-0.1845,-0.1921,-0.197,-0.2036,-0.2069,-0.2111,-0.2128,-0.2153,-0.2143,-0.2136,-0.2145,-0.2118,-0.2101,-0.2099,-0.1951,-0.1917,-0.2019,-0.2055,-0.2055,-0.2055,-0.2055,-0.2056,0,-0.1549,-0.1639,-0.169,-0.1719,-0.1812,-0.1855,-0.1907,-0.1981,-0.2019,-0.209,-0.2115,-0.2152,-0.2166,-0.2154,-0.2127,-0.2136,-0.2098,-0.2102,-0.195,-0.194,-0.2058,-0.2055,-0.2083,-0.2083,-0.2083,-0.2083,-0.2083,0,-0.1527,-0.1571,-0.1679,-0.1704,-0.1762,-0.1839,-0.1901,-0.1957,-0.203,-0.2055,-0.2127,-0.2134,-0.217,-0.2155,-0.2129,-0.2025,-0.2097,-0.1943,-0.1915,-0.2079,-0.2079,-0.2057,-0.2055,-0.2082,-0.2082,-0.2082,-0.2083,0,-0.146,-0.1537,-0.1598,-0.1706,-0.1742,-0.1783,-0.1887,-0.1918,-0.2006,-0.204,-0.2061,-0.2122,-0.2095,-0.2102,-0.207,-0.2002,-0.1934,-0.1878,-0.2041,-0.2026,-0.178,-0.1781,-0.1703,-0.1698,-0.1693,-0.1689,-0.1686,0,-0.1427,-0.1455,-0.1579,-0.161,-0.1663,-0.1739,-0.1779,-0.1888,-0.1913,-0.2004,-0.1995,-0.2019,-0.2035,-0.1872,-0.1906,-0.1831,-0.181,-0.1765,-0.1781,-0.1758,-0.174,-0.1748,-0.1755,-0.1679,-0.1678,-0.1677,-0.1676,0,-0.1352,-0.1412,-0.1459,-0.1526,-0.1581,-0.1631,-0.1699,-0.1703,-0.1806,-0.1909,-0.1863,-0.1834,-0.1798,-0.1765,-0.1713,-0.1668,-0.1792,-0.1718,-0.1727,-0.1742,-0.1728,-0.1717,-0.1729,-0.166,-0.1662,-0.1664,-0.1664,0,-0.1292,-0.1305,-0.1373,-0.1413,-0.148,-0.1486,-0.1544,-0.1559,-0.1598,-0.1703,-0.168,-0.1707,-0.1771,-0.1678,-0.1633,-0.1572,-0.1553,-0.1501,-0.1522,-0.154,-0.1505,-0.1464,-0.1277,0,0,0,0,0,-0.1221,-0.1217,-0.1249,-0.1286,-0.1346,-0.1378,-0.1466,-0.1526,-0.1631,-0.1547,-0.1607,-0.1564,-0.1498,-0.1521,-0.142,-0.1562,-0.1562,-0.1439,-0.1516,-0.1573,-0.1591,-0.1566,0,0,0,0,0,0,-0.1172,-0.12,-0.1205,-0.1163,-0.116,-0.1205,-0.1251,-0.1327,-0.1293,-0.1405,-0.1373,-0.1461,-0.142,-0.1519,-0.1383,-0.1388,-0.1401,-0.1471,-0.1466,-0.1563,-0.1579,-0.1594,-0.1574,0,0,0,0,0]},{"header":{"parameterUnit":"m.s-1","parameterCategory":2,"la1":30.2991,"la2":30.254,"lo1":-89.0895,"lo2":-89.0444,"dy":0.0017,"dx":0.0017,"nx":28,"ny":28,"refTime":"2025-08-08T09:00:00:Z","depth":"4","parameterNumber":3,"parameterNumberName":"V-component_of_CURRENTS"},"data":[0,0,0,0,0,0,0,0,0,0,0,0,0,0,0,0,0,0,0,0,0,0,0,0,0,0,0,0,0,0,0,0,0,0,0,0,0,0,0,0,0,0,0,0,0,0,0,0,0,0,0,0,0,0,0,0,0,0,-0.0179,-0.0178,0,-0.0134,-0.0133,-0.0133,-0.0099,-0.0098,-0.0098,-0.0098,-0.0017,-0.0015,-0.0013,0,0,0,0,0,0,0,0,0,0,0,0,0,-0.0201,-0.0201,-0.0179,-0.0178,-0.0178,-0.0134,-0.0133,-0.0133,-0.0099,-0.0098,-0.0098,-0.0098,-0.0017,-0.0015,-0.0013,0,0,0,0,0,0,0,0,0,0,0,0,0,-0.0176,-0.02,-0.0179,-0.0157,-0.0154,-0.0134,-0.0133,-0.0133,-0.0099,-0.0098,-0.0098,-0.0098,-0.0018,-0.0015,-0.0012,0.0001,0,0,-0.0003,-0.0002,0,0,0,0,0,0,0,0,-0.0177,-0.0175,-0.016,-0.0158,-0.0156,-0.0123,-0.0111,-0.0087,-0.0099,-0.0118,-0.0098,-0.0098,-0.005,-0.0044,-0.0035,0.0005,0.0008,-0.0003,-0.0001,0.0,0.0001,0,0,0,0,0,0,0,-0.0179,-0.0176,-0.0159,-0.016,-0.0157,-0.0138,-0.0134,-0.0106,-0.0084,-0.0117,-0.0114,-0.0112,-0.0048,-0.0038,-0.0033,0.0009,-0.0003,-0.0,0.0002,0.0003,0.0067,0.0067,0,0,0,0,0,0,-0.019,-0.0178,-0.0161,-0.0158,-0.0168,-0.0138,-0.0134,-0.0132,-0.0085,-0.0079,-0.0112,-0.0111,-0.0043,-0.0036,-0.003,-0.001,0.0,0.0003,0.0005,0.0067,0.0067,0.0067,0,0,0,0,0,0,-0.019,-0.0189,-0.0163,-0.0168,-0.0164,-0.0138,-0.0137,-0.0132,-0.0124,-0.0083,-0.0075,-0.011,-0.0043,-0.0034,-0.001,-0.0007,0.0004,0.0007,0.0067,0.0067,0.0067,0.0028,0,0,0,0,0,0,-0.0191,-0.0189,-0.0194,-0.0169,-0.0164,-0.0157,-0.0137,-0.0131,-0.0123,-0.0121,-0.0078,-0.007,-0.0042,-0.0014,-0.0007,-0.0002,0.001,0.0067,0.0067,0.0067,0.003,0.0027,0.0024,0,0,0,0,0,-0.0192,-0.0201,-0.0195,-0.0193,-0.0171,-0.0158,-0.0153,-0.0132,-0.0124,-0.0124,-0.0095,-0.0072,-0.001,-0.0012,-0.0003,0.0002,0.0067,0.0067,0.0067,0.0031,0.0027,0.0024,0,0,0,0,0,0,-0.0212,-0.0197,-0.019,-0.0194,-0.018,-0.0153,-0.0152,-0.0138,-0.0115,-0.0113,-0.0073,-0.0063,-0.0042,-0.0016,-0.002,0.0019,0.0033,0.0034,0.0002,-0.0001,-0.0003,-0.0011,0.0012,0,0,0,0,0,-0.022,-0.0223,-0.0204,-0.0208,-0.0203,-0.0179,-0.0172,-0.0159,-0.0136,-0.0126,-0.0096,-0.0064,-0.0035,-0.0017,0.001,0.0032,0.0062,0.0041,0.0039,0.0036,0.0036,0.0084,0.0085,0.0066,0.0066,0.0066,0,0,-0.0229,-0.0222,-0.0223,-0.0212,-0.02,-0.0197,-0.0174,-0.0168,-0.0162,-0.012,-0.0104,-0.0075,-0.0033,-0.0009,0.0003,0.0013,0.0056,0.0036,0.0034,0.0035,0.0084,0.0086,0.0087,0.0066,0.0066,0.0066,0,0,-0.0249,-0.0242,-0.0251,-0.0244,-0.0232,-0.0215,-0.0217,-0.0193,-0.0179,-0.0162,-0.0129,-0.0099,-0.006,-0.0024,-0.0001,-0.0002,0.0036,0.0004,-0.0009,0.0037,0.0039,0.0042,0.0075,0.008,0.0007,0.0007,0.0007,0,-0.0261,-0.0269,-0.0252,-0.0258,-0.0256,-0.0227,-0.0235,-0.0215,-0.0186,-0.0173,-0.0164,-0.0098,-0.0064,-0.0021,-0.0022,-0.0006,0.0019,-0.0001,0.0034,0.0037,0.004,0.0074,0.008,0.0005,0.0006,0.0006,0.0006,0,-0.0285,-0.0293,-0.0298,-0.0296,-0.029,-0.0293,-0.0267,-0.0255,-0.0236,-0.0211,-0.0174,-0.0126,-0.0085,-0.0067,-0.0044,-0.0005,0.0005,0.0021,0.0041,0.004,0.0075,0.0083,0.0003,0.0003,0.0004,0.0004,0,0,-0.0309,-0.0315,-0.0318,-0.0328,-0.0313,-0.0313,-0.03,-0.0279,-0.0271,-0.0231,-0.0211,-0.0153,-0.0125,-0.0097,-0.0058,-0.0014,0.0028,0.0008,0.0011,0.0039,0.0121,0.0103,0.011,0.005,0.0051,0.0052,0.0135,0,-0.0334,-0.0363,-0.0352,-0.0374,-0.0386,-0.0358,-0.0352,-0.0326,-0.0296,-0.0268,-0.0202,-0.0172,-0.0135,-0.0118,-0.0067,0.0003,0.0048,0.0004,0.012,0.0124,0.0107,0.0118,0.0056,0.014,0.0142,0.0144,0.0145,0,-0.0361,-0.0378,-0.041,-0.0421,-0.0423,-0.0429,-0.0416,-0.0404,-0.035,-0.0325,-0.0272,-0.0223,-0.0151,-0.0125,0.0003,-0.0029,0.0039,0.0097,0.0102,0.0105,0.012,0.0146,0.0159,0.0158,0.0157,0.0156,0.0155,0,-0.0394,-0.0417,-0.0448,-0.0452,-0.0457,-0.0465,-0.0462,-0.0425,-0.0417,-0.0361,-0.0346,-0.0252,-0.0209,-0.0106,0.0009,0.0007,0.0147,0.0162,0.0214,0.0213,0.0222,0.0219,0.0253,0.0253,0.0253,0.0253,0.0252,0,-0.0424,-0.045,-0.0472,-0.0491,-0.0527,-0.051,-0.053,-0.0509,-0.0477,-0.0466,-0.0382,-0.0347,-0.0202,-0.0105,0.0001,0.0127,0.0145,0.0213,0.0236,0.0202,0.0196,0.0227,0.0223,0.0256,0.0255,0.0254,0.0254,0,-0.0454,-0.0468,-0.051,-0.0535,-0.0547,-0.0574,-0.059,-0.0596,-0.056,-0.0541,-0.0526,-0.0412,-0.0283,-0.0139,0.0033,0.0107,0.0234,0.0275,0.0219,0.0237,0.0271,0.0264,0.034,0.0341,0.0341,0.0341,0.0341,0,-0.047,-0.0497,-0.0553,-0.0587,-0.0605,-0.0641,-0.0663,-0.0643,-0.0641,-0.0578,-0.0564,-0.0444,-0.0355,-0.0122,0.0024,0.0224,0.0251,0.0306,0.0298,0.0267,0.0282,0.0274,0.0267,0.0341,0.0341,0.0341,0.0341,0,-0.0501,-0.0527,-0.0562,-0.0637,-0.068,-0.0718,-0.0742,-0.0747,-0.071,-0.0683,-0.0583,-0.0455,-0.0309,-0.0124,0.0027,0.0171,0.0264,0.0308,0.0309,0.0302,0.0268,0.0281,0.0274,0.0341,0.0341,0.0341,0.0341,0,-0.0523,-0.056,-0.0615,-0.0674,-0.0734,-0.077,-0.0781,-0.0761,-0.0746,-0.0665,-0.0634,-0.0465,-0.0361,-0.0151,-0.001,0.0126,0.0161,0.0196,0.0203,0.0205,0.0138,0.0074,0.0109,0,0,0,0,0,-0.0537,-0.058,-0.0645,-0.0708,-0.0767,-0.0794,-0.0818,-0.0813,-0.0782,-0.0717,-0.067,-0.0527,-0.0301,-0.0195,-0.0061,-0.0019,0.017,0.0139,0.021,0.0343,0.0343,0.0285,0,0,0,0,0,0,-0.0548,-0.0612,-0.0645,-0.0718,-0.0763,-0.0817,-0.0832,-0.0813,-0.0761,-0.0712,-0.0583,-0.0508,-0.0282,-0.0374,-0.0061,-0.002,0.0039,0.0252,0.0254,0.0343,0.0343,0.0343,0.0284,0,0,0,0,0]}]]